^^
Saratoga-Weather Station Historical Data
Daily Summary for October 01, 2022 Units:  Metric    English   Both
Daily Weekly Monthly Yearly Custom
  High: Low: Average:
Temperature: 17.2 °C 8.2 °C 12.6 °C
Dew Point: 14.2 °C 6.7 °C 10.8 °C
Humidity: 94% 77% 89%
Wind Speed: 17.7km/h 0km/h 5.6km/h
Wind Gust: 30.6km/h - -
Wind- - WSW
Pressure: 1016.9 hPa 1007.1 hPa -
Precipitation: 23.1 mm    
Historical Graphs
 
 
Tabular Data for October 01, 2022
Time Temperature Dew Point Pressure Wind Wind Speed Wind Gust Humidity Rainfall Rate (Hourly) solar
00:04 8.2 °C 6.7 °C 1011.2 hPa Calm     90% 0.0 mm 0 W/m2
00:09 8.2 °C 6.7 °C 1011.2 hPa Calm     90% 0.0 mm 0 W/m2
00:14 8.3 °C 6.8 °C 1011.2 hPa Calm   3.2 km/h 90% 0.0 mm 0 W/m2
00:19 8.4 °C 6.9 °C 1010.8 hPa Calm     90% 0.0 mm 0 W/m2
00:24 8.6 °C 7.1 °C 1011.2 hPa SSW 1.4 km/h 3.2 km/h 90% 0.0 mm 0 W/m2
00:29 8.7 °C 7.2 °C 1011.2 hPa SSW 1.4 km/h 3.2 km/h 90% 0.0 mm 0 W/m2
00:34 8.7 °C 7.2 °C 1011.2 hPa Calm   4.8 km/h 90% 0.0 mm 0 W/m2
00:39 8.9 °C 7.2 °C 1011.2 hPa Calm   1.6 km/h 89% 0.0 mm 0 W/m2
00:44 9 °C 7.3 °C 1011.2 hPa Calm   4.8 km/h 89% 0.0 mm 0 W/m2
00:49 9.2 °C 7.3 °C 1010.8 hPa NNE 4.7 km/h 4.8 km/h 88% 0.0 mm 0 W/m2
00:54 9.4 °C 7.3 °C 1011.2 hPa North 1.4 km/h 3.2 km/h 87% 0.0 mm 0 W/m2
00:59 9.6 °C 7.5 °C 1011.2 hPa North 1.4 km/h 3.2 km/h 87% 0.0 mm 0 W/m2
01:04 9.8 °C 7.6 °C 1011.2 hPa Calm   1.6 km/h 86% 0.0 mm 0 W/m2
01:09 10 °C 7.6 °C 1010.8 hPa North 3.2 km/h 6.4 km/h 85% 0.0 mm 0 W/m2
01:14 10.3 °C 7.7 °C 1010.8 hPa Calm   4.8 km/h 84% 0.0 mm 0 W/m2
01:19 10.4 °C 7.6 °C 1010.8 hPa NW 1.4 km/h 3.2 km/h 83% 0.0 mm 0 W/m2
01:24 10.7 °C 7.8 °C 1010.8 hPa SSE 4.7 km/h 6.4 km/h 82% 0.0 mm 0 W/m2
01:29 11 °C 7.7 °C 1010.8 hPa NNE 3.2 km/h 6.4 km/h 80% 0.0 mm 0 W/m2
01:34 11.2 °C 7.7 °C 1010.8 hPa NW 1.4 km/h 6.4 km/h 79% 0.0 mm 0 W/m2
01:39 11.3 °C 7.8 °C 1010.8 hPa Calm   3.2 km/h 79% 0.0 mm 0 W/m2
01:44 11.4 °C 7.7 °C 1010.8 hPa SSW 4.7 km/h 4.8 km/h 78% 0.0 mm 0 W/m2
01:49 11.4 °C 7.7 °C 1010.8 hPa WNW 3.2 km/h 9.7 km/h 78% 0.0 mm 0 W/m2
01:54 11.4 °C 7.7 °C 1010.8 hPa SW 3.2 km/h 6.4 km/h 78% 0.0 mm 0 W/m2
01:59 11.4 °C 7.5 °C 1010.8 hPa NW 6.4 km/h 8 km/h 77% 0.0 mm 0 W/m2
02:04 11.4 °C 7.5 °C 1010.8 hPa ENE 4.7 km/h 6.4 km/h 77% 0.0 mm 0 W/m2
02:09 11.4 °C 7.7 °C 1010.5 hPa NNW 6.4 km/h 11.3 km/h 78% 0.0 mm 0 W/m2
02:14 11.3 °C 7.6 °C 1010.5 hPa Calm   3.2 km/h 78% 0.0 mm 0 W/m2
02:19 11.3 °C 7.6 °C 1010.5 hPa NNE 6.4 km/h 6.4 km/h 78% 0.0 mm 0 W/m2
02:24 11.2 °C 7.5 °C 1010.5 hPa ENE 3.2 km/h 6.4 km/h 78% 0.0 mm 0 W/m2
02:29 11.2 °C 7.5 °C 1010.2 hPa SW 6.4 km/h 12.9 km/h 78% 0.0 mm 0 W/m2
02:34 11.2 °C 7.5 °C 1010.2 hPa North 4.7 km/h 4.8 km/h 78% 0.0 mm 0 W/m2
02:39 11.2 °C 7.7 °C 1010.2 hPa NW 3.2 km/h 4.8 km/h 79% 0.0 mm 0 W/m2
02:44 11.2 °C 7.7 °C 1010.2 hPa ENE 3.2 km/h 11.3 km/h 79% 0.0 mm 0 W/m2
02:49 11.2 °C 7.7 °C 1010.2 hPa WNW 1.4 km/h 8 km/h 79% 0.0 mm 0 W/m2
02:54 11.2 °C 7.7 °C 1009.8 hPa NNW 3.2 km/h 6.4 km/h 79% 0.0 mm 0 W/m2
02:59 11.2 °C 7.7 °C 1009.8 hPa NNW 3.2 km/h 6.4 km/h 79% 0.0 mm 0 W/m2
03:04 11.1 °C 7.6 °C 1009.8 hPa North 4.7 km/h 4.8 km/h 79% 0.0 mm 0 W/m2
03:09 11.1 °C 7.8 °C 1009.8 hPa ENE 1.4 km/h 3.2 km/h 80% 0.0 mm 0 W/m2
03:14 11 °C 7.7 °C 1009.8 hPa NNE 4.7 km/h 9.7 km/h 80% 0.0 mm 0 W/m2
03:19 10.9 °C 7.8 °C 1009.8 hPa NE 1.4 km/h 4.8 km/h 81% 0.0 mm 0 W/m2
03:24 10.9 °C 7.8 °C 1009.8 hPa NNW 3.2 km/h 6.4 km/h 81% 0.0 mm 0 W/m2
03:29 10.8 °C 7.9 °C 1009.5 hPa North 3.2 km/h 4.8 km/h 82% 0.2 mm 0 W/m2
03:34 10.7 °C 7.9 °C 1009.5 hPa NNW 1.4 km/h 1.6 km/h 83% 0.2 mm 0 W/m2
03:39 10.6 °C 8 °C 1009.5 hPa NNW 1.4 km/h 6.4 km/h 84% 0.5 mm 0 W/m2
03:44 10.5 °C 8.1 °C 1009.5 hPa WNW 11.1 km/h 12.9 km/h 85% 0.5 mm 0 W/m2
03:49 10.3 °C 8.1 °C 1009.5 hPa ENE 1.4 km/h 6.4 km/h 86% 0.8 mm 0 W/m2
03:54 10.2 °C 8 °C 1009.5 hPa North 1.4 km/h 4.8 km/h 86% 1.0 mm 0 W/m2
03:59 10.1 °C 8 °C 1009.1 hPa NNE 3.2 km/h 6.4 km/h 87% 1.0 mm 0 W/m2
04:04 10 °C 8.1 °C 1009.1 hPa NW 3.2 km/h 4.8 km/h 88% 1.3 mm 0 W/m2
04:09 9.9 °C 8 °C 1009.1 hPa NNE 1.4 km/h 3.2 km/h 88% 1.3 mm 0 W/m2
04:14 9.8 °C 8.1 °C 1009.1 hPa Calm   4.8 km/h 89% 1.3 mm 0 W/m2
04:19 9.8 °C 8.1 °C 1009.1 hPa NE 1.4 km/h 9.7 km/h 89% 1.3 mm 0 W/m2
04:24 9.8 °C 8.1 °C 1009.1 hPa Calm   4.8 km/h 89% 1.3 mm 0 W/m2
04:29 9.8 °C 8.1 °C 1009.1 hPa NE 3.2 km/h 8 km/h 89% 1.0 mm 0 W/m2
04:34 9.8 °C 8.2 °C 1008.8 hPa NE 4.7 km/h 6.4 km/h 90% 1.3 mm 0 W/m2
04:39 9.8 °C 8.2 °C 1008.8 hPa NNW 1.4 km/h 17.7 km/h 90% 1.0 mm 0 W/m2
04:44 9.8 °C 8.2 °C 1008.8 hPa NE 3.2 km/h 8 km/h 90% 1.0 mm 0 W/m2
04:49 9.8 °C 8.2 °C 1008.8 hPa NNE 7.9 km/h 17.7 km/h 90% 0.8 mm 0 W/m2
04:54 9.8 °C 8.2 °C 1008.5 hPa ENE 4.7 km/h 9.7 km/h 90% 0.5 mm 0 W/m2
04:59 9.9 °C 8.3 °C 1008.5 hPa NNW 3.2 km/h 6.4 km/h 90% 0.5 mm 0 W/m2
05:04 9.9 °C 8.3 °C 1008.5 hPa NNW 6.4 km/h 6.4 km/h 90% 0.5 mm 0 W/m2
05:09 9.9 °C 8.3 °C 1008.5 hPa NNE 1.4 km/h 8 km/h 90% 0.5 mm 0 W/m2
05:14 9.9 °C 8.3 °C 1008.5 hPa North 4.7 km/h 6.4 km/h 90% 0.5 mm 0 W/m2
05:19 9.9 °C 8.3 °C 1008.1 hPa WNW 4.7 km/h 8 km/h 90% 0.5 mm 0 W/m2
05:24 9.9 °C 8.5 °C 1008.1 hPa NE 4.7 km/h 8 km/h 91% 0.8 mm 0 W/m2
05:29 9.9 °C 8.5 °C 1008.1 hPa NNE 4.7 km/h 19.3 km/h 91% 0.8 mm 0 W/m2
05:34 9.9 °C 8.5 °C 1008.1 hPa NNE 3.2 km/h 8 km/h 91% 0.8 mm 0 W/m2
05:39 9.9 °C 8.5 °C 1007.8 hPa North 3.2 km/h 19.3 km/h 91% 1.0 mm 0 W/m2
05:44 9.9 °C 8.5 °C 1008.1 hPa NNE 3.2 km/h 6.4 km/h 91% 1.0 mm 0 W/m2
05:49 9.9 °C 8.5 °C 1007.8 hPa ESE 6.4 km/h 16.1 km/h 91% 1.5 mm 0 W/m2
05:54 9.9 °C 8.5 °C 1007.8 hPa North 4.7 km/h 6.4 km/h 91% 1.5 mm 0 W/m2
05:59 9.9 °C 8.5 °C 1007.8 hPa ESE 7.9 km/h 11.3 km/h 91% 1.8 mm 0 W/m2
06:04 9.9 °C 8.7 °C 1007.8 hPa NNE 1.4 km/h 9.7 km/h 92% 2.3 mm 0 W/m2
06:09 9.8 °C 8.6 °C 1007.5 hPa NNE 4.7 km/h 8 km/h 92% 2.8 mm 0 W/m2
06:14 9.8 °C 8.6 °C 1007.5 hPa NE 6.4 km/h 14.5 km/h 92% 3.3 mm 0 W/m2
06:19 9.8 °C 8.6 °C 1007.5 hPa NNW 3.2 km/h 17.7 km/h 92% 3.3 mm 0 W/m2
06:24 9.8 °C 8.6 °C 1007.1 hPa NNE 1.4 km/h 14.5 km/h 92% 3.6 mm 0 W/m2
06:29 9.8 °C 8.6 °C 1007.1 hPa North 1.4 km/h 17.7 km/h 92% 4.3 mm 0 W/m2
06:34 9.8 °C 8.7 °C 1007.1 hPa ENE 6.4 km/h 12.9 km/h 93% 4.3 mm 0 W/m2
06:39 9.9 °C 8.8 °C 1007.1 hPa NE 6.4 km/h 11.3 km/h 93% 4.3 mm 0 W/m2
06:44 9.9 °C 8.8 °C 1007.1 hPa Calm   8 km/h 93% 4.6 mm 0 W/m2
06:49 9.9 °C 8.8 °C 1007.1 hPa NNW 7.9 km/h 8 km/h 93% 4.8 mm 0 W/m2
06:54 9.9 °C 8.8 °C 1007.1 hPa NNE 7.9 km/h 8 km/h 93% 5.1 mm 0 W/m2
06:59 9.9 °C 8.8 °C 1007.1 hPa NNW 6.4 km/h 9.7 km/h 93% 5.6 mm 0 W/m2
07:04 10 °C 8.9 °C 1007.1 hPa ENE 11.1 km/h 11.3 km/h 93% 5.8 mm 0 W/m2
07:09 10 °C 8.9 °C 1007.1 hPa NNW 6.4 km/h 9.7 km/h 93% 5.8 mm 0 W/m2
07:14 10.1 °C 9 °C 1007.1 hPa ENE 6.4 km/h 8 km/h 93% 5.6 mm 0 W/m2
07:19 10.1 °C 9 °C 1007.1 hPa NNW 1.4 km/h 4.8 km/h 93% 6.1 mm 0 W/m2
07:24 10.1 °C 9 °C 1007.1 hPa West 3.2 km/h 4.8 km/h 93% 5.8 mm 0 W/m2
07:29 10.1 °C 9 °C 1007.1 hPa ESE 4.7 km/h 17.7 km/h 93% 5.8 mm 0 W/m2
07:34 10.1 °C 9 °C 1007.5 hPa WSW 4.7 km/h 14.5 km/h 93% 6.1 mm 0 W/m2
07:39 10.2 °C 9.3 °C 1007.5 hPa NW 6.4 km/h 6.4 km/h 94% 6.1 mm 0 W/m2
07:44 10.2 °C 9.3 °C 1007.5 hPa Calm   12.9 km/h 94% 6.1 mm 0 W/m2
07:49 10.2 °C 9.3 °C 1007.5 hPa NNW 3.2 km/h 9.7 km/h 94% 6.1 mm 0 W/m2
07:54 10.2 °C 9.3 °C 1007.5 hPa West 1.4 km/h 6.4 km/h 94% 5.6 mm 0 W/m2
07:59 10.3 °C 9.4 °C 1007.5 hPa NNW 3.2 km/h 8 km/h 94% 5.6 mm 0 W/m2
08:05 10.3 °C 9.4 °C 1007.5 hPa ENE 1.4 km/h 4.8 km/h 94% 5.1 mm 0 W/m2
08:10 10.3 °C 9.4 °C 1007.5 hPa NNW 4.7 km/h 6.4 km/h 94% 5.1 mm 0 W/m2
08:15 10.3 °C 9.4 °C 1007.1 hPa North 4.7 km/h 8 km/h 94% 4.8 mm 7 W/m2
08:20 10.3 °C 9.4 °C 1007.5 hPa North 1.4 km/h 8 km/h 94% 4.8 mm 5 W/m2
08:25 10.4 °C 9.5 °C 1007.5 hPa NE 3.2 km/h 9.7 km/h 94% 4.3 mm 7 W/m2
08:30 10.4 °C 9.5 °C 1007.5 hPa NW 3.2 km/h 16.1 km/h 94% 4.3 mm 7 W/m2
08:35 10.4 °C 9.5 °C 1007.5 hPa North 1.4 km/h 3.2 km/h 94% 4.3 mm 9 W/m2
08:40 10.5 °C 9.6 °C 1007.5 hPa North 7.9 km/h 12.9 km/h 94% 4.3 mm 9 W/m2
08:45 10.6 °C 9.7 °C 1007.8 hPa West 3.2 km/h 6.4 km/h 94% 3.6 mm 9 W/m2
08:50 10.6 °C 9.7 °C 1007.8 hPa ENE 7.9 km/h 9.7 km/h 94% 3.8 mm 9 W/m2
08:55 10.6 °C 9.7 °C 1007.8 hPa WNW 1.4 km/h 3.2 km/h 94% 3.6 mm 14 W/m2
09:00 10.6 °C 9.7 °C 1007.5 hPa SW 7.9 km/h 9.7 km/h 94% 3.3 mm 18 W/m2
09:05 10.7 °C 9.8 °C 1007.5 hPa NNW 1.4 km/h 3.2 km/h 94% 3.3 mm 21 W/m2
09:10 10.7 °C 9.8 °C 1007.5 hPa NW 1.4 km/h 8 km/h 94% 2.8 mm 21 W/m2
09:15 10.8 °C 9.9 °C 1007.5 hPa West 1.4 km/h 8 km/h 94% 2.5 mm 28 W/m2
09:20 10.8 °C 9.9 °C 1007.5 hPa NNE 6.4 km/h 6.4 km/h 94% 2.3 mm 35 W/m2
09:25 10.9 °C 10 °C 1007.1 hPa NE 1.4 km/h 3.2 km/h 94% 2.0 mm 33 W/m2
09:30 11 °C 10.1 °C 1007.5 hPa North 4.7 km/h 4.8 km/h 94% 1.5 mm 28 W/m2
09:35 11 °C 10.1 °C 1007.5 hPa Calm   6.4 km/h 94% 1.5 mm 30 W/m2
09:40 11.1 °C 10.2 °C 1007.5 hPa NW 3.2 km/h 6.4 km/h 94% 1.3 mm 21 W/m2
09:45 11.1 °C 10.2 °C 1007.5 hPa North 3.2 km/h 6.4 km/h 94% 1.3 mm 25 W/m2
09:50 11.2 °C 10.3 °C 1007.5 hPa NNW 1.4 km/h 14.5 km/h 94% 1.0 mm 32 W/m2
09:55 11.2 °C 10.3 °C 1007.5 hPa SW 4.7 km/h 6.4 km/h 94% 0.8 mm 37 W/m2
10:00 11.3 °C 10.4 °C 1007.8 hPa NNW 4.7 km/h 16.1 km/h 94% 0.5 mm 37 W/m2
10:05 11.3 °C 10.4 °C 1007.8 hPa WNW 13 km/h 16.1 km/h 94% 0.8 mm 33 W/m2
10:10 11.3 °C 10.4 °C 1007.8 hPa ENE 6.4 km/h 11.3 km/h 94% 0.8 mm 33 W/m2
10:15 11.4 °C 10.5 °C 1008.1 hPa WNW 3.2 km/h 16.1 km/h 94% 0.8 mm 33 W/m2
10:20 11.4 °C 10.5 °C 1008.1 hPa NNW 3.2 km/h 11.3 km/h 94% 0.8 mm 42 W/m2
10:25 11.6 °C 10.7 °C 1008.1 hPa NW 11.1 km/h 11.3 km/h 94% 1.0 mm 46 W/m2
10:30 11.6 °C 10.7 °C 1008.1 hPa NW 1.4 km/h 14.5 km/h 94% 1.0 mm 47 W/m2
10:35 11.7 °C 10.8 °C 1008.1 hPa WSW 1.4 km/h 12.9 km/h 94% 0.8 mm 56 W/m2
10:40 11.7 °C 10.8 °C 1008.1 hPa NNW 1.4 km/h 9.7 km/h 94% 0.8 mm 56 W/m2
10:45 11.8 °C 10.9 °C 1008.5 hPa West 6.4 km/h 11.3 km/h 94% 0.5 mm 72 W/m2
10:50 11.8 °C 10.9 °C 1008.1 hPa SW 1.4 km/h 12.9 km/h 94% 0.5 mm 70 W/m2
10:55 11.9 °C 11 °C 1008.5 hPa SSW 6.4 km/h 12.9 km/h 94% 0.5 mm 63 W/m2
11:00 12 °C 11.1 °C 1008.5 hPa WNW 1.4 km/h 4.8 km/h 94% 0.2 mm 56 W/m2
11:05 12.1 °C 11.2 °C 1008.5 hPa NNW 4.7 km/h 12.9 km/h 94% 0.2 mm 84 W/m2
11:10 12.2 °C 11.3 °C 1008.5 hPa WNW 6.4 km/h 8 km/h 94% 0.2 mm 54 W/m2
11:15 12.2 °C 11.3 °C 1008.5 hPa WSW 1.4 km/h 11.3 km/h 94% 0.2 mm 67 W/m2
11:20 12.3 °C 11.4 °C 1008.5 hPa NW 4.7 km/h 6.4 km/h 94% 0.2 mm 79 W/m2
11:25 12.4 °C 11.5 °C 1008.5 hPa SW 14.3 km/h 30.6 km/h 94% 0.0 mm 171 W/m2
11:30 12.6 °C 11.7 °C 1008.5 hPa NW 6.4 km/h 6.4 km/h 94% 0.0 mm 125 W/m2
11:35 12.8 °C 11.9 °C 1008.5 hPa WNW 3.2 km/h 30.6 km/h 94% 0.0 mm 155 W/m2
11:40 12.9 °C 12 °C 1008.5 hPa NW 7.9 km/h 12.9 km/h 94% 0.0 mm 139 W/m2
11:45 13 °C 12.1 °C 1008.5 hPa SSE 1.4 km/h 11.3 km/h 94% 0.0 mm 167 W/m2
11:50 13.1 °C 12.2 °C 1008.5 hPa WNW 6.4 km/h 12.9 km/h 94% 0.0 mm 123 W/m2
11:55 13.2 °C 12.1 °C 1008.5 hPa NW 3.2 km/h 6.4 km/h 93% 0.0 mm 118 W/m2
12:00 13.2 °C 12.1 °C 1008.8 hPa West 4.7 km/h 14.5 km/h 93% 0.0 mm 130 W/m2
12:05 13.3 °C 12.2 °C 1008.5 hPa West 4.7 km/h 12.9 km/h 93% 0.0 mm 169 W/m2
12:10 13.3 °C 12.2 °C 1008.5 hPa NNW 9.7 km/h 17.7 km/h 93% 0.0 mm 230 W/m2
12:15 13.6 °C 12.5 °C 1008.5 hPa West 4.7 km/h 8 km/h 93% 0.0 mm 260 W/m2
12:20 13.8 °C 12.7 °C 1008.8 hPa WNW 7.9 km/h 17.7 km/h 93% 0.0 mm 281 W/m2
12:25 14.2 °C 13.1 °C 1008.8 hPa NE 4.7 km/h 12.9 km/h 93% 0.0 mm 415 W/m2
12:30 14.6 °C 13.3 °C 1008.8 hPa NW 9.7 km/h 17.7 km/h 92% 0.0 mm 272 W/m2
12:35 14.7 °C 13.2 °C 1008.8 hPa WSW 13 km/h 14.5 km/h 91% 0.0 mm 429 W/m2
12:40 14.7 °C 13.2 °C 1009.1 hPa WNW 7.9 km/h 8 km/h 91% 0.0 mm 127 W/m2
12:45 14.7 °C 13.1 °C 1009.1 hPa West 6.4 km/h 11.3 km/h 90% 0.0 mm 91 W/m2
12:50 14.6 °C 13 °C 1009.1 hPa NW 7.9 km/h 12.9 km/h 90% 0.0 mm 137 W/m2
12:55 14.6 °C 13.1 °C 1009.1 hPa West 4.7 km/h 11.3 km/h 91% 0.0 mm 357 W/m2
13:00 14.7 °C 13.2 °C 1009.1 hPa ENE 4.7 km/h 14.5 km/h 91% 0.0 mm 63 W/m2
13:05 14.6 °C 13 °C 1009.1 hPa WNW 17.7 km/h 17.7 km/h 90% 0.0 mm 58 W/m2
13:10 14.6 °C 13 °C 1009.1 hPa West 4.7 km/h 20.9 km/h 90% 0.0 mm 93 W/m2
13:15 14.6 °C 13 °C 1009.1 hPa WNW 6.4 km/h 11.3 km/h 90% 0.0 mm 132 W/m2
13:20 15 °C 13.4 °C 1009.1 hPa West 11.1 km/h 19.3 km/h 90% 0.0 mm 622 W/m2
13:25 15.5 °C 13.9 °C 1009.1 hPa West 16.3 km/h 24.1 km/h 90% 0.0 mm 557 W/m2
13:30 15.9 °C 13.9 °C 1009.1 hPa West 6.4 km/h 19.3 km/h 88% 0.0 mm 671 W/m2
13:35 16.2 °C 14 °C 1009.5 hPa West 17.7 km/h 17.7 km/h 87% 0.0 mm 659 W/m2
13:40 16.4 °C 14.1 °C 1009.1 hPa NW 16.3 km/h 19.3 km/h 86% 0.0 mm 682 W/m2
13:45 16.5 °C 14.1 °C 1009.5 hPa West 9.7 km/h 19.3 km/h 86% 0.0 mm 661 W/m2
13:50 16.6 °C 14.1 °C 1009.5 hPa WNW 1.4 km/h 11.3 km/h 85% 0.0 mm 592 W/m2
13:55 16.5 °C 13.8 °C 1009.5 hPa West 6.4 km/h 16.1 km/h 84% 0.0 mm 388 W/m2
14:00 16.4 °C 13.9 °C 1009.5 hPa West 9.7 km/h 17.7 km/h 85% 0.0 mm 172 W/m2
14:05 16.5 °C 14 °C 1009.5 hPa West 13 km/h 16.1 km/h 85% 0.0 mm 98 W/m2
14:11 16.7 °C 14 °C 1009.5 hPa WSW 7.9 km/h 20.9 km/h 84% 0.0 mm 148 W/m2
14:16 16.8 °C 13.9 °C 1009.5 hPa NW 16.3 km/h 25.7 km/h 83% 0.0 mm 116 W/m2
14:21 17 °C 13.7 °C 1009.5 hPa WNW 6.4 km/h 27.4 km/h 81% 0.0 mm 102 W/m2
14:26 17.2 °C 13.7 °C 1009.5 hPa WNW 6.4 km/h 20.9 km/h 80% 0.0 mm 83 W/m2
14:31 17.2 °C 13.7 °C 1009.5 hPa WNW 6.4 km/h 27.4 km/h 80% 0.0 mm 79 W/m2
14:36 17.2 °C 13.7 °C 1009.8 hPa NW 7.9 km/h 24.1 km/h 80% 0.0 mm 144 W/m2
14:41 17 °C 13.5 °C 1009.5 hPa SSW 14.3 km/h 22.5 km/h 80% 0.0 mm 123 W/m2
14:46 16.9 °C 13.6 °C 1009.8 hPa WNW 9.7 km/h 14.5 km/h 81% 0.0 mm 47 W/m2
14:51 16.8 °C 13.5 °C 1009.5 hPa SW 11.1 km/h 16.1 km/h 81% 0.0 mm 146 W/m2
14:56 16.7 °C 13.4 °C 1009.8 hPa WSW 6.4 km/h 9.7 km/h 81% 0.0 mm 65 W/m2
15:01 16.5 °C 13.4 °C 1009.8 hPa WSW 6.4 km/h 14.5 km/h 82% 0.0 mm 130 W/m2
15:06 16.4 °C 13.5 °C 1009.8 hPa NW 4.7 km/h 8 km/h 83% 0.0 mm 156 W/m2
15:11 16.4 °C 13.7 °C 1009.8 hPa NW 4.7 km/h 6.4 km/h 84% 0.0 mm 130 W/m2
15:16 16.6 °C 13.7 °C 1010.2 hPa NW 4.7 km/h 16.1 km/h 83% 0.0 mm 98 W/m2
15:21 16.5 °C 13.8 °C 1010.2 hPa West 9.7 km/h 11.3 km/h 84% 0.0 mm 114 W/m2
15:26 16.3 °C 13.6 °C 1010.2 hPa West 11.1 km/h 16.1 km/h 84% 0.0 mm 84 W/m2
15:31 16.1 °C 13.6 °C 1010.2 hPa WNW 3.2 km/h 11.3 km/h 85% 0.0 mm 123 W/m2
15:36 15.9 °C 13.6 °C 1010.2 hPa North 4.7 km/h 6.4 km/h 86% 0.2 mm 239 W/m2
15:41 16 °C 13.8 °C 1010.2 hPa WNW 7.9 km/h 11.3 km/h 87% 0.2 mm 195 W/m2
15:46 16.2 °C 14 °C 1010.2 hPa NW 6.4 km/h 8 km/h 87% 0.2 mm 274 W/m2
15:51 16.4 °C 14.2 °C 1010.2 hPa West 9.7 km/h 11.3 km/h 87% 0.2 mm 313 W/m2
15:56 16.6 °C 14.2 °C 1010.2 hPa WNW 3.2 km/h 11.3 km/h 86% 0.2 mm 123 W/m2
16:01 16.6 °C 14.1 °C 1010.2 hPa NW 7.9 km/h 14.5 km/h 85% 0.2 mm 104 W/m2
16:06 16.4 °C 13.9 °C 1010.2 hPa NNW 6.4 km/h 14.5 km/h 85% 0.2 mm 88 W/m2
16:11 16.2 °C 13.9 °C 1010.5 hPa West 16.3 km/h 16.1 km/h 86% 0.2 mm 192 W/m2
16:16 15.9 °C 13.7 °C 1010.5 hPa West 1.4 km/h 8 km/h 87% 0.5 mm 134 W/m2
16:21 15.8 °C 13.6 °C 1010.5 hPa West 6.4 km/h 9.7 km/h 87% 0.5 mm 70 W/m2
16:26 15.7 °C 13.5 °C 1010.8 hPa West 6.4 km/h 17.7 km/h 87% 0.8 mm 44 W/m2
16:31 15.5 °C 13.5 °C 1010.8 hPa WNW 1.4 km/h 4.8 km/h 88% 1.0 mm 102 W/m2
16:36 15.4 °C 13.6 °C 1010.8 hPa NNW 6.4 km/h 16.1 km/h 89% 1.0 mm 98 W/m2
16:41 15.3 °C 13.5 °C 1010.8 hPa SW 4.7 km/h 14.5 km/h 89% 1.0 mm 88 W/m2
16:46 15.3 °C 13.5 °C 1010.8 hPa West 9.7 km/h 12.9 km/h 89% 1.0 mm 26 W/m2
16:51 15.3 °C 13.5 °C 1010.8 hPa WNW 11.1 km/h 14.5 km/h 89% 1.5 mm 26 W/m2
16:56 15.2 °C 13.2 °C 1011.2 hPa WNW 7.9 km/h 14.5 km/h 88% 1.5 mm 37 W/m2
17:01 15.1 °C 13.3 °C 1011.2 hPa WNW 6.4 km/h 6.4 km/h 89% 2.3 mm 23 W/m2
17:06 14.9 °C 13.3 °C 1011.5 hPa West 4.7 km/h 14.5 km/h 90% 2.5 mm 28 W/m2
17:11 14.8 °C 13.2 °C 1011.5 hPa West 11.1 km/h 11.3 km/h 90% 2.8 mm 81 W/m2
17:16 14.6 °C 13.1 °C 1011.5 hPa WNW 6.4 km/h 11.3 km/h 91% 2.5 mm 93 W/m2
17:21 14.6 °C 13.1 °C 1011.9 hPa SW 11.1 km/h 16.1 km/h 91% 2.5 mm 93 W/m2
17:26 14.6 °C 13.1 °C 1011.9 hPa West 11.1 km/h 16.1 km/h 91% 2.3 mm 39 W/m2
17:31 14.5 °C 12.9 °C 1011.9 hPa SW 7.9 km/h 19.3 km/h 90% 2.0 mm 49 W/m2
17:36 14.3 °C 12.7 °C 1011.9 hPa SW 6.4 km/h 24.1 km/h 90% 2.0 mm 81 W/m2
17:41 14.2 °C 12.4 °C 1011.9 hPa WSW 6.4 km/h 14.5 km/h 89% 2.0 mm 97 W/m2
17:46 14.2 °C 12.4 °C 1011.9 hPa WNW 4.7 km/h 14.5 km/h 89% 2.0 mm 70 W/m2
17:51 14.1 °C 12.3 °C 1011.9 hPa West 9.7 km/h 12.9 km/h 89% 1.5 mm 65 W/m2
17:56 13.9 °C 12.1 °C 1011.9 hPa WNW 6.4 km/h 17.7 km/h 89% 1.5 mm 90 W/m2
18:01 13.9 °C 12.1 °C 1012.2 hPa West 9.7 km/h 19.3 km/h 89% 0.8 mm 116 W/m2
18:06 13.9 °C 12.3 °C 1012.2 hPa WSW 13 km/h 16.1 km/h 90% 0.5 mm 51 W/m2
18:11 14 °C 12.2 °C 1012.2 hPa WNW 7.9 km/h 19.3 km/h 89% 0.2 mm 44 W/m2
18:16 14.1 °C 12.3 °C 1012.2 hPa NW 4.7 km/h 19.3 km/h 89% 0.2 mm 44 W/m2
18:21 14 °C 12.4 °C 1012.5 hPa WSW 6.4 km/h 19.3 km/h 90% 0.2 mm 35 W/m2
18:26 14 °C 12.4 °C 1012.5 hPa West 6.4 km/h 16.1 km/h 90% 0.2 mm 37 W/m2
18:31 13.9 °C 12.3 °C 1012.5 hPa WSW 7.9 km/h 17.7 km/h 90% 0.2 mm 33 W/m2
18:36 13.9 °C 12.3 °C 1012.5 hPa WSW 7.9 km/h 16.1 km/h 90% 0.0 mm 26 W/m2
18:41 13.9 °C 12.5 °C 1012.5 hPa WNW 6.4 km/h 14.5 km/h 91% 0.0 mm 23 W/m2
18:46 13.9 °C 12.5 °C 1012.5 hPa West 4.7 km/h 16.1 km/h 91% 0.0 mm 19 W/m2
18:51 13.8 °C 12.4 °C 1012.5 hPa West 11.1 km/h 16.1 km/h 91% 0.0 mm 14 W/m2
18:56 13.8 °C 12.4 °C 1012.9 hPa West 9.7 km/h 11.3 km/h 91% 0.0 mm 12 W/m2
19:01 13.8 °C 12.4 °C 1012.9 hPa WNW 14.3 km/h 16.1 km/h 91% 0.0 mm 7 W/m2
19:06 13.8 °C 12.4 °C 1012.9 hPa WSW 4.7 km/h 6.4 km/h 91% 0.0 mm 5 W/m2
19:11 13.8 °C 12.4 °C 1012.9 hPa West 3.2 km/h 12.9 km/h 91% 0.0 mm 5 W/m2
19:16 13.8 °C 12.4 °C 1013.2 hPa West 4.7 km/h 9.7 km/h 91% 0.0 mm 0 W/m2
19:21 13.7 °C 12.3 °C 1013.2 hPa WNW 7.9 km/h 12.9 km/h 91% 0.0 mm 0 W/m2
19:26 13.7 °C 12.3 °C 1013.5 hPa West 4.7 km/h 9.7 km/h 91% 0.0 mm 0 W/m2
19:31 13.7 °C 12.3 °C 1013.5 hPa West 3.2 km/h 9.7 km/h 91% 0.0 mm 0 W/m2
19:36 13.7 °C 12.3 °C 1013.5 hPa WSW 7.9 km/h 12.9 km/h 91% 0.0 mm 0 W/m2
19:41 13.6 °C 12.2 °C 1013.5 hPa West 9.7 km/h 16.1 km/h 91% 0.0 mm 0 W/m2
19:46 13.6 °C 12.2 °C 1013.5 hPa WNW 3.2 km/h 9.7 km/h 91% 0.0 mm 0 W/m2
19:51 13.6 °C 12.3 °C 1013.9 hPa WNW 4.7 km/h 12.9 km/h 92% 0.0 mm 0 W/m2
19:56 13.6 °C 12.3 °C 1014.2 hPa West 3.2 km/h 14.5 km/h 92% 0.0 mm 0 W/m2
20:01 13.6 °C 12.3 °C 1013.9 hPa West 3.2 km/h 9.7 km/h 92% 0.0 mm 0 W/m2
20:06 13.6 °C 12.3 °C 1014.2 hPa West 6.4 km/h 16.1 km/h 92% 0.0 mm 0 W/m2
20:11 13.6 °C 12.3 °C 1014.2 hPa WSW 1.4 km/h 14.5 km/h 92% 0.0 mm 0 W/m2
20:16 13.7 °C 12.4 °C 1014.2 hPa West 6.4 km/h 14.5 km/h 92% 0.0 mm 0 W/m2
20:21 13.7 °C 12.3 °C 1014.6 hPa WNW 7.9 km/h 12.9 km/h 91% 0.0 mm 0 W/m2
20:26 13.8 °C 12.4 °C 1014.6 hPa WSW 13 km/h 12.9 km/h 91% 0.0 mm 0 W/m2
20:31 13.8 °C 12.4 °C 1014.6 hPa WSW 7.9 km/h 19.3 km/h 91% 0.0 mm 0 W/m2
20:36 13.8 °C 12.4 °C 1014.6 hPa WNW 11.1 km/h 14.5 km/h 91% 0.0 mm 0 W/m2
20:41 13.8 °C 12.4 °C 1014.6 hPa WSW 7.9 km/h 19.3 km/h 91% 0.0 mm 0 W/m2
20:46 13.9 °C 12.5 °C 1014.9 hPa WSW 9.7 km/h 16.1 km/h 91% 0.0 mm 0 W/m2
20:51 13.9 °C 12.5 °C 1014.9 hPa West 11.1 km/h 12.9 km/h 91% 0.0 mm 0 W/m2
20:56 14 °C 12.6 °C 1015.2 hPa West 4.7 km/h 14.5 km/h 91% 0.0 mm 0 W/m2
21:01 14 °C 12.6 °C 1015.2 hPa West 6.4 km/h 12.9 km/h 91% 0.0 mm 0 W/m2
21:06 14 °C 12.6 °C 1015.2 hPa WSW 11.1 km/h 14.5 km/h 91% 0.0 mm 0 W/m2
21:11 14 °C 12.4 °C 1015.2 hPa West 9.7 km/h 12.9 km/h 90% 0.0 mm 0 W/m2
21:16 14 °C 12.4 °C 1015.2 hPa WSW 6.4 km/h 19.3 km/h 90% 0.0 mm 0 W/m2
21:21 14 °C 12.4 °C 1015.2 hPa WSW 14.3 km/h 14.5 km/h 90% 0.0 mm 0 W/m2
21:26 13.9 °C 12.3 °C 1015.2 hPa WNW 11.1 km/h 17.7 km/h 90% 0.0 mm 0 W/m2
21:31 13.9 °C 12.1 °C 1015.2 hPa WNW 3.2 km/h 12.9 km/h 89% 0.0 mm 0 W/m2
21:36 13.9 °C 12.3 °C 1015.2 hPa West 3.2 km/h 14.5 km/h 90% 0.0 mm 0 W/m2
21:41 13.8 °C 12.2 °C 1015.6 hPa West 11.1 km/h 12.9 km/h 90% 0.0 mm 0 W/m2
21:46 13.8 °C 12.2 °C 1015.6 hPa West 3.2 km/h 11.3 km/h 90% 0.0 mm 0 W/m2
21:51 13.8 °C 12 °C 1015.6 hPa WNW 14.3 km/h 14.5 km/h 89% 0.0 mm 0 W/m2
21:56 13.8 °C 12 °C 1015.6 hPa West 4.7 km/h 9.7 km/h 89% 0.0 mm 0 W/m2
22:01 13.7 °C 11.9 °C 1015.6 hPa West 11.1 km/h 17.7 km/h 89% 0.0 mm 0 W/m2
22:06 13.7 °C 11.9 °C 1015.9 hPa West 6.4 km/h 9.7 km/h 89% 0.0 mm 0 W/m2
22:11 13.6 °C 11.8 °C 1015.9 hPa WSW 7.9 km/h 17.7 km/h 89% 0.0 mm 0 W/m2
22:16 13.5 °C 11.7 °C 1015.9 hPa West 9.7 km/h 12.9 km/h 89% 0.0 mm 0 W/m2
22:21 13.4 °C 11.6 °C 1016.3 hPa NW 6.4 km/h 17.7 km/h 89% 0.0 mm 0 W/m2
22:26 13.4 °C 11.6 °C 1016.3 hPa SW 14.3 km/h 14.5 km/h 89% 0.0 mm 0 W/m2
22:31 13.3 °C 11.5 °C 1016.3 hPa NW 6.4 km/h 17.7 km/h 89% 0.0 mm 0 W/m2
22:36 13.3 °C 11.5 °C 1016.3 hPa SSW 9.7 km/h 16.1 km/h 89% 0.0 mm 0 W/m2
22:41 13.3 °C 11.5 °C 1016.3 hPa WNW 4.7 km/h 14.5 km/h 89% 0.0 mm 0 W/m2
22:46 13.3 °C 11.7 °C 1016.3 hPa WNW 6.4 km/h 16.1 km/h 90% 0.0 mm 0 W/m2
22:51 13.3 °C 11.7 °C 1016.3 hPa WSW 3.2 km/h 11.3 km/h 90% 0.0 mm 0 W/m2
22:56 13.2 °C 11.6 °C 1016.3 hPa WSW 4.7 km/h 16.1 km/h 90% 0.0 mm 0 W/m2
23:01 13.2 °C 11.8 °C 1016.3 hPa WNW 6.4 km/h 11.3 km/h 91% 0.0 mm 0 W/m2
23:06 13.2 °C 11.8 °C 1016.6 hPa SW 4.7 km/h 11.3 km/h 91% 0.0 mm 0 W/m2
23:11 13.2 °C 11.8 °C 1016.6 hPa NW 7.9 km/h 14.5 km/h 91% 0.2 mm 0 W/m2
23:16 13.2 °C 11.8 °C 1016.9 hPa WNW 6.4 km/h 9.7 km/h 91% 0.5 mm 0 W/m2
23:21 13.2 °C 11.9 °C 1016.9 hPa WNW 6.4 km/h 12.9 km/h 92% 0.8 mm 0 W/m2
23:26 13.1 °C 11.8 °C 1016.9 hPa West 3.2 km/h 14.5 km/h 92% 1.0 mm 0 W/m2
23:31 13.1 °C 11.8 °C 1016.9 hPa West 3.2 km/h 6.4 km/h 92% 1.0 mm 0 W/m2
23:36 13.1 °C 11.8 °C 1016.9 hPa NW 4.7 km/h 14.5 km/h 92% 1.0 mm 0 W/m2
23:41 13.1 °C 11.8 °C 1016.9 hPa WSW 4.7 km/h 8 km/h 92% 1.0 mm 0 W/m2
23:46 13 °C 11.7 °C 1016.9 hPa WNW 3.2 km/h 6.4 km/h 92% 1.0 mm 0 W/m2
23:51 12.9 °C 11.8 °C 1016.9 hPa NW 3.2 km/h 6.4 km/h 93% 1.0 mm 0 W/m2
23:56 12.9 °C 11.8 °C 1016.9 hPa West 3.2 km/h 3.2 km/h 93% 1.0 mm 0 W/m2
Juneau County Weather
Compliments of Weather Underground - 4 mb